Time,TemperatureF,DewpointF,PressureIn,WindDirection,WindDirectionDegrees,WindSpeedMPH,WindSpeedGustMPH,Humidity,HourlyPrecipIn,Conditions,Clouds,dailyrainin,SoftwareType,DateUTC
2013-01-11 00:00:00,40.9,31.5,30.49,East,85,0.0,0.0,69,0.00,,,0.00,Wunderground v.1.15,2013-01-11 05:00:00,
2013-01-11 00:04:00,40.8,31.4,30.49,East,86,0.0,0.0,69,0.00,,,0.00,Wunderground v.1.15,2013-01-11 05:04:00,
2013-01-11 00:08:00,40.6,31.6,30.49,East,86,0.0,0.0,70,0.00,,,0.00,Wunderground v.1.15,2013-01-11 05:08:00,
2013-01-11 00:13:00,40.4,31.7,30.49,East,86,0.0,0.0,71,0.00,,,0.00,Wunderground v.1.15,2013-01-11 05:13:00,
2013-01-11 00:19:00,40.5,32.2,30.49,SE,141,1.0,1.0,72,0.00,,,0.00,Wunderground v.1.15,2013-01-11 05:19:00,
2013-01-11 00:24:00,40.6,31.9,30.48,SE,141,0.0,0.0,71,0.00,,,0.00,Wunderground v.1.15,2013-01-11 05:24:00,
2013-01-11 00:29:00,40.6,31.6,30.48,SE,141,0.0,0.0,70,0.00,,,0.00,Wunderground v.1.15,2013-01-11 05:29:00,
2013-01-11 00:35:00,40.4,31.4,30.49,SE,141,0.0,0.0,70,0.00,,,0.00,Wunderground v.1.15,2013-01-11 05:35:00,
2013-01-11 00:40:00,40.2,31.5,30.48,SE,141,0.0,0.0,71,0.00,,,0.00,Wunderground v.1.15,2013-01-11 05:40:00,
2013-01-11 00:45:00,40.2,31.5,30.48,SE,141,0.0,0.0,71,0.00,,,0.00,Wunderground v.1.15,2013-01-11 05:45:00,
2013-01-11 00:51:00,40.2,31.9,30.48,SE,141,0.0,0.0,72,0.00,,,0.00,Wunderground v.1.15,2013-01-11 05:51:00,
2013-01-11 00:56:00,40.1,31.8,30.48,SE,139,0.0,0.0,72,0.00,,,0.00,Wunderground v.1.15,2013-01-11 05:56:00,
2013-01-11 01:02:00,40.2,31.9,30.48,SE,139,0.0,0.0,72,0.00,,,0.00,Wunderground v.1.15,2013-01-11 06:02:00,
2013-01-11 01:07:00,40.1,32.1,30.48,SE,139,0.0,0.0,73,0.00,,,0.00,Wunderground v.1.15,2013-01-11 06:07:00,
2013-01-11 01:13:00,40.1,31.8,30.48,SE,139,0.0,0.0,72,0.00,,,0.00,Wunderground v.1.15,2013-01-11 06:13:00,
2013-01-11 01:18:00,40.0,31.7,30.48,SE,139,0.0,0.0,72,0.00,,,0.00,Wunderground v.1.15,2013-01-11 06:18:00,
2013-01-11 01:23:00,40.0,31.0,30.48,SE,140,0.0,0.0,70,0.00,,,0.00,Wunderground v.1.15,2013-01-11 06:23:00,
2013-01-11 01:29:00,39.9,30.9,30.48,SE,139,0.0,0.0,70,0.00,,,0.00,Wunderground v.1.15,2013-01-11 06:29:00,
2013-01-11 01:34:00,39.9,30.9,30.48,SE,141,0.0,0.0,70,0.00,,,0.00,Wunderground v.1.15,2013-01-11 06:34:00,
2013-01-11 01:39:00,40.0,31.0,30.48,SE,139,0.0,0.0,70,0.00,,,0.00,Wunderground v.1.15,2013-01-11 06:39:00,
2013-01-11 01:45:00,40.0,31.0,30.48,SE,139,0.0,0.0,70,0.00,,,0.00,Wunderground v.1.15,2013-01-11 06:45:00,
2013-01-11 01:50:00,40.0,31.0,30.48,SE,139,0.0,0.0,70,0.00,,,0.00,Wunderground v.1.15,2013-01-11 06:50:00,
2013-01-11 01:55:00,40.1,30.7,30.48,ESE,111,0.0,0.0,69,0.00,,,0.00,Wunderground v.1.15,2013-01-11 06:55:00,
2013-01-11 02:01:00,40.0,31.0,30.48,ESE,112,0.0,0.0,70,0.00,,,0.00,Wunderground v.1.15,2013-01-11 07:01:00,
2013-01-11 02:06:00,40.0,31.0,30.47,ESE,111,0.0,0.0,70,0.00,,,0.00,Wunderground v.1.15,2013-01-11 07:06:00,
2013-01-11 02:11:00,39.9,30.9,30.48,ESE,112,0.0,0.0,70,0.00,,,0.00,Wunderground v.1.15,2013-01-11 07:11:00,
2013-01-11 02:17:00,39.9,30.9,30.48,ESE,112,0.0,0.0,70,0.00,,,0.00,Wunderground v.1.15,2013-01-11 07:17:00,
2013-01-11 02:22:00,39.8,30.8,30.48,ESE,111,0.0,0.0,70,0.00,,,0.00,Wunderground v.1.15,2013-01-11 07:22:00,
2013-01-11 02:28:00,39.7,30.7,30.47,ESE,112,1.0,1.0,70,0.00,,,0.00,Wunderground v.1.15,2013-01-11 07:28:00,
2013-01-11 02:33:00,39.5,30.9,30.47,ESE,108,0.0,0.0,71,0.00,,,0.00,Wunderground v.1.15,2013-01-11 07:33:00,
2013-01-11 02:38:00,39.2,30.6,30.47,ESE,109,0.0,0.0,71,0.00,,,0.00,Wunderground v.1.15,2013-01-11 07:38:00,
2013-01-11 02:44:00,39.0,30.7,30.47,ESE,109,0.0,0.0,72,0.00,,,0.00,Wunderground v.1.15,2013-01-11 07:44:00,
2013-01-11 02:49:00,38.9,30.6,30.47,ESE,109,0.0,0.0,72,0.00,,,0.00,Wunderground v.1.15,2013-01-11 07:49:00,
2013-01-11 02:54:00,38.8,31.2,30.46,ESE,108,0.0,0.0,74,0.00,,,0.00,Wunderground v.1.15,2013-01-11 07:54:00,
2013-01-11 03:00:00,38.5,30.9,30.46,ESE,108,0.0,0.0,74,0.00,,,0.00,Wunderground v.1.15,2013-01-11 08:00:00,
2013-01-11 03:06:00,38.4,30.8,30.45,ESE,109,0.0,0.0,74,0.00,,,0.00,Wunderground v.1.15,2013-01-11 08:06:00,
2013-01-11 03:11:00,38.1,30.5,30.45,ESE,109,0.0,0.0,74,0.00,,,0.00,Wunderground v.1.15,2013-01-11 08:11:00,
2013-01-11 03:16:00,38.0,30.8,30.45,ESE,109,0.0,0.0,75,0.00,,,0.00,Wunderground v.1.15,2013-01-11 08:16:00,
2013-01-11 03:21:00,37.9,31.0,30.44,ESE,109,0.0,0.0,76,0.00,,,0.00,Wunderground v.1.15,2013-01-11 08:21:00,
2013-01-11 03:27:00,37.6,30.7,30.44,ESE,108,0.0,0.0,76,0.00,,,0.00,Wunderground v.1.15,2013-01-11 08:27:00,
2013-01-11 03:32:00,37.5,30.6,30.44,ESE,108,0.0,0.0,76,0.00,,,0.00,Wunderground v.1.15,2013-01-11 08:32:00,
2013-01-11 03:38:00,37.4,31.2,30.45,ESE,109,0.0,0.0,78,0.00,,,0.00,Wunderground v.1.15,2013-01-11 08:38:00,
2013-01-11 03:43:00,37.2,31.3,30.45,ESE,109,0.0,0.0,79,0.00,,,0.00,Wunderground v.1.15,2013-01-11 08:43:00,
2013-01-11 03:48:00,37.0,31.1,30.45,ESE,109,0.0,0.0,79,0.00,,,0.00,Wunderground v.1.15,2013-01-11 08:48:00,
2013-01-11 03:53:00,36.8,30.9,30.44,ESE,109,0.0,0.0,79,0.00,,,0.00,Wunderground v.1.15,2013-01-11 08:53:00,
2013-01-11 03:59:00,36.7,31.1,30.44,East,81,1.0,1.0,80,0.00,,,0.00,Wunderground v.1.15,2013-01-11 08:59:00,
2013-01-11 04:04:00,36.9,30.7,30.43,East,81,0.0,1.0,78,0.00,,,0.00,Wunderground v.1.15,2013-01-11 09:04:00,
2013-01-11 04:09:00,36.9,30.7,30.44,East,80,0.0,1.0,78,0.00,,,0.00,Wunderground v.1.15,2013-01-11 09:09:00,
2013-01-11 04:15:00,37.0,30.5,30.43,East,81,0.0,0.0,77,0.00,,,0.00,Wunderground v.1.15,2013-01-11 09:15:00,
2013-01-11 04:20:00,37.0,30.8,30.43,East,81,0.0,0.0,78,0.00,,,0.00,Wunderground v.1.15,2013-01-11 09:20:00,
2013-01-11 04:25:00,36.8,30.9,30.43,East,81,0.0,1.0,79,0.00,,,0.00,Wunderground v.1.15,2013-01-11 09:25:00,
2013-01-11 04:31:00,36.6,31.0,30.44,East,81,0.0,0.0,80,0.00,,,0.00,Wunderground v.1.15,2013-01-11 09:31:00,
2013-01-11 04:36:00,36.4,30.8,30.44,East,80,0.0,0.0,80,0.00,,,0.00,Wunderground v.1.15,2013-01-11 09:36:00,
2013-01-11 04:41:00,36.7,31.1,30.43,East,81,0.0,0.0,80,0.00,,,0.00,Wunderground v.1.15,2013-01-11 09:41:00,
2013-01-11 04:47:00,36.9,31.0,30.43,East,94,0.0,1.0,79,0.00,,,0.00,Wunderground v.1.15,2013-01-11 09:47:00,
2013-01-11 04:52:00,36.8,30.9,30.43,East,94,0.0,0.0,79,0.00,,,0.00,Wunderground v.1.15,2013-01-11 09:52:00,
2013-01-11 04:57:00,36.6,30.7,30.43,East,94,0.0,0.0,79,0.00,,,0.00,Wunderground v.1.15,2013-01-11 09:57:00,
2013-01-11 05:03:00,36.6,30.7,30.43,East,95,0.0,0.0,79,0.00,,,0.00,Wunderground v.1.15,2013-01-11 10:03:00,
2013-01-11 05:08:00,36.6,30.7,30.43,East,95,0.0,0.0,79,0.00,,,0.00,Wunderground v.1.15,2013-01-11 10:08:00,
2013-01-11 05:14:00,36.7,30.8,30.43,East,95,0.0,0.0,79,0.00,,,0.00,Wunderground v.1.15,2013-01-11 10:14:00,
2013-01-11 05:19:00,36.7,30.8,30.43,East,94,0.0,0.0,79,0.00,,,0.00,Wunderground v.1.15,2013-01-11 10:19:00,
2013-01-11 05:25:00,36.6,30.7,30.43,East,94,0.0,0.0,79,0.00,,,0.00,Wunderground v.1.15,2013-01-11 10:25:00,
2013-01-11 05:30:00,36.5,31.2,30.43,East,94,0.0,0.0,81,0.00,,,0.00,Wunderground v.1.15,2013-01-11 10:30:00,
2013-01-11 05:36:00,36.4,31.1,30.43,East,94,0.0,0.0,81,0.00,,,0.00,Wunderground v.1.15,2013-01-11 10:36:00,
2013-01-11 05:41:00,36.4,31.1,30.43,East,95,0.0,0.0,81,0.00,,,0.00,Wunderground v.1.15,2013-01-11 10:41:00,
2013-01-11 05:46:00,36.5,30.9,30.43,East,94,0.0,0.0,80,0.00,,,0.00,Wunderground v.1.15,2013-01-11 10:46:00,
2013-01-11 05:52:00,36.5,30.9,30.43,East,94,0.0,0.0,80,0.00,,,0.00,Wunderground v.1.15,2013-01-11 10:52:00,
2013-01-11 05:58:00,36.7,31.7,30.43,East,94,0.0,0.0,82,0.00,,,0.00,Wunderground v.1.15,2013-01-11 10:58:00,
2013-01-11 06:03:00,36.6,31.6,30.43,East,95,0.0,0.0,82,0.00,,,0.00,Wunderground v.1.15,2013-01-11 11:03:00,
2013-01-11 06:08:00,36.5,31.2,30.43,East,94,0.0,0.0,81,0.00,,,0.00,Wunderground v.1.15,2013-01-11 11:08:00,
2013-01-11 06:13:00,36.4,31.1,30.43,East,94,0.0,0.0,81,0.00,,,0.00,Wunderground v.1.15,2013-01-11 11:13:00,
2013-01-11 06:19:00,36.3,31.0,30.43,East,94,0.0,0.0,81,0.00,,,0.00,Wunderground v.1.15,2013-01-11 11:19:00,
2013-01-11 06:24:00,36.2,31.2,30.43,East,94,0.0,0.0,82,0.00,,,0.00,Wunderground v.1.15,2013-01-11 11:24:00,
2013-01-11 06:30:00,36.1,31.1,30.44,East,94,0.0,0.0,82,0.00,,,0.00,Wunderground v.1.15,2013-01-11 11:30:00,
2013-01-11 06:35:00,36.1,31.4,30.43,East,94,0.0,0.0,83,0.00,,,0.00,Wunderground v.1.15,2013-01-11 11:35:00,
2013-01-11 06:41:00,36.1,31.4,30.43,East,87,0.0,1.0,83,0.00,,,0.00,Wunderground v.1.15,2013-01-11 11:41:00,
2013-01-11 06:46:00,36.0,31.3,30.42,East,87,0.0,1.0,83,0.00,,,0.00,Wunderground v.1.15,2013-01-11 11:46:00,
2013-01-11 06:51:00,35.9,31.2,30.43,East,88,0.0,1.0,83,0.00,,,0.00,Wunderground v.1.15,2013-01-11 11:51:00,
2013-01-11 06:57:00,35.9,31.2,30.42,East,88,0.0,0.0,83,0.00,,,0.00,Wunderground v.1.15,2013-01-11 11:57:00,
2013-01-11 07:02:00,35.7,31.0,30.41,East,88,0.0,1.0,83,0.00,,,0.00,Wunderground v.1.15,2013-01-11 12:02:00,
2013-01-11 07:08:00,35.6,30.9,30.40,East,91,0.0,1.0,83,0.00,,,0.00,Wunderground v.1.15,2013-01-11 12:08:00,
2013-01-11 07:13:00,35.7,31.0,30.40,East,80,0.0,1.0,83,0.00,,,0.00,Wunderground v.1.15,2013-01-11 12:13:00,
2013-01-11 07:18:00,35.8,31.1,30.41,SSE,165,1.0,1.0,83,0.00,,,0.00,Wunderground v.1.15,2013-01-11 12:18:00,
2013-01-11 07:23:00,35.8,31.1,30.41,East,92,1.0,1.0,83,0.00,,,0.00,Wunderground v.1.15,2013-01-11 12:23:00,
2013-01-11 07:29:00,35.7,31.0,30.41,East,92,0.0,1.0,83,0.00,,,0.00,Wunderground v.1.15,2013-01-11 12:29:00,
2013-01-11 07:35:00,35.6,30.9,30.41,East,92,0.0,0.0,83,0.00,,,0.00,Wunderground v.1.15,2013-01-11 12:35:00,
2013-01-11 07:40:00,35.5,31.1,30.41,ESE,118,0.0,0.0,84,0.00,,,0.00,Wunderground v.1.15,2013-01-11 12:40:00,
2013-01-11 07:45:00,35.5,31.1,30.41,ENE,61,0.0,0.0,84,0.00,,,0.00,Wunderground v.1.15,2013-01-11 12:45:00,
2013-01-11 07:51:00,35.7,31.3,30.41,ENE,61,1.0,1.0,84,0.00,,,0.00,Wunderground v.1.15,2013-01-11 12:51:00,
2013-01-11 07:56:00,35.9,31.5,30.41,ENE,70,0.0,0.0,84,0.00,,,0.00,Wunderground v.1.15,2013-01-11 12:56:00,
2013-01-11 08:02:00,36.2,31.8,30.40,ENE,70,0.0,0.0,84,0.00,,,0.00,Wunderground v.1.15,2013-01-11 13:02:00,
2013-01-11 08:07:00,36.5,32.1,30.40,ENE,70,0.0,0.0,84,0.00,,,0.00,Wunderground v.1.15,2013-01-11 13:07:00,
2013-01-11 08:12:00,37.0,32.6,30.39,East,90,0.0,0.0,84,0.00,,,0.00,Wunderground v.1.15,2013-01-11 13:12:00,
2013-01-11 08:18:00,37.5,32.5,30.40,ESE,120,0.0,0.0,82,0.00,,,0.00,Wunderground v.1.15,2013-01-11 13:18:00,
2013-01-11 08:23:00,38.0,33.3,30.40,East,86,0.0,0.0,83,0.00,,,0.00,Wunderground v.1.15,2013-01-11 13:23:00,
2013-01-11 08:28:00,38.3,33.3,30.40,NE,37,1.0,1.0,82,0.00,,,0.00,Wunderground v.1.15,2013-01-11 13:28:00,
2013-01-11 08:34:00,38.6,33.3,30.40,East,94,0.0,1.0,81,0.00,,,0.00,Wunderground v.1.15,2013-01-11 13:34:00,
2013-01-11 08:39:00,39.0,33.7,30.40,ESE,110,0.0,1.0,81,0.00,,,0.00,Wunderground v.1.15,2013-01-11 13:39:00,
2013-01-11 08:44:00,39.2,33.5,30.39,East,98,1.0,2.0,80,0.00,,,0.00,Wunderground v.1.15,2013-01-11 13:44:00,
2013-01-11 08:50:00,39.5,33.5,30.39,East,86,0.0,3.0,79,0.00,,,0.00,Wunderground v.1.15,2013-01-11 13:50:00,
2013-01-11 08:55:00,39.7,33.7,30.39,East,90,0.0,2.0,79,0.00,,,0.00,Wunderground v.1.15,2013-01-11 13:55:00,
2013-01-11 09:01:00,40.0,34.0,30.39,South,169,0.0,0.0,79,0.00,,,0.00,Wunderground v.1.15,2013-01-11 14:01:00,
2013-01-11 09:06:00,40.2,34.2,30.39,SSE,155,0.0,0.0,79,0.00,,,0.00,Wunderground v.1.15,2013-01-11 14:06:00,
2013-01-11 09:12:00,40.4,34.4,30.40,SSE,155,0.0,0.0,79,0.00,,,0.00,Wunderground v.1.15,2013-01-11 14:12:00,
2013-01-11 09:17:00,40.8,34.8,30.39,ESE,105,1.0,1.0,79,0.00,,,0.00,Wunderground v.1.15,2013-01-11 14:17:00,
2013-01-11 09:23:00,41.0,35.0,30.39,East,83,2.0,2.0,79,0.00,,,0.00,Wunderground v.1.15,2013-01-11 14:23:00,
2013-01-11 09:28:00,41.3,35.0,30.38,ESE,106,1.0,3.0,78,0.00,,,0.00,Wunderground v.1.15,2013-01-11 14:28:00,
2013-01-11 09:34:00,41.6,35.2,30.39,SE,127,0.0,1.0,78,0.00,,,0.00,Wunderground v.1.15,2013-01-11 14:34:00,
2013-01-11 09:40:00,41.8,35.4,30.38,East,79,0.0,2.0,78,0.00,,,0.00,Wunderground v.1.15,2013-01-11 14:40:00,
2013-01-11 09:45:00,41.9,35.5,30.39,SSE,154,2.0,2.0,78,0.00,,,0.00,Wunderground v.1.15,2013-01-11 14:45:00,
2013-01-11 09:51:00,42.0,35.6,30.40,SSW,210,1.0,3.0,78,0.00,,,0.00,Wunderground v.1.15,2013-01-11 14:51:00,
2013-01-11 09:56:00,42.1,35.7,30.40,SSW,194,2.0,2.0,78,0.00,,,0.00,Wunderground v.1.15,2013-01-11 14:56:00,
2013-01-11 10:02:00,42.2,35.5,30.39,SE,146,0.0,1.0,77,0.00,,,0.00,Wunderground v.1.15,2013-01-11 15:02:00,
2013-01-11 10:07:00,42.5,36.1,30.38,ESE,110,2.0,2.0,78,0.00,,,0.00,Wunderground v.1.15,2013-01-11 15:07:00,
2013-01-11 10:13:00,42.7,36.0,30.38,SE,140,0.0,2.0,77,0.00,,,0.00,Wunderground v.1.15,2013-01-11 15:13:00,
2013-01-11 10:18:00,42.9,36.2,30.37,SE,135,1.0,2.0,77,0.00,,,0.00,Wunderground v.1.15,2013-01-11 15:18:00,
2013-01-11 10:24:00,43.2,36.8,30.37,East,95,0.0,0.0,78,0.00,,,0.00,Wunderground v.1.15,2013-01-11 15:24:00,
2013-01-11 10:29:00,43.3,36.6,30.36,South,181,2.0,2.0,77,0.00,,,0.00,Wunderground v.1.15,2013-01-11 15:29:00,
2013-01-11 10:35:00,43.5,36.8,30.37,NE,54,0.0,2.0,77,0.00,,,0.00,Wunderground v.1.15,2013-01-11 15:35:00,
2013-01-11 10:40:00,43.6,36.9,30.36,East,100,1.0,2.0,77,0.00,,,0.00,Wunderground v.1.15,2013-01-11 15:40:00,
2013-01-11 10:46:00,43.7,37.0,30.36,SSE,160,0.0,1.0,77,0.00,,,0.00,Wunderground v.1.15,2013-01-11 15:46:00,
2013-01-11 10:51:00,43.9,37.5,30.36,SSW,203,0.0,1.0,78,0.00,,,0.00,Wunderground v.1.15,2013-01-11 15:51:00,
2013-01-11 11:03:00,44.3,37.9,30.34,ESE,121,0.0,0.0,78,0.00,,,0.00,Wunderground v.1.15,2013-01-11 16:03:00,
2013-01-11 11:09:00,44.5,38.1,30.34,ESE,122,1.0,2.0,78,0.00,,,0.00,Wunderground v.1.15,2013-01-11 16:09:00,
2013-01-11 11:14:00,44.7,38.3,30.34,SW,236,0.0,1.0,78,0.00,,,0.00,Wunderground v.1.15,2013-01-11 16:14:00,
2013-01-11 11:19:00,44.7,37.9,30.34,SSE,155,0.0,0.0,77,0.00,,,0.00,Wunderground v.1.15,2013-01-11 16:19:00,
2013-01-11 11:24:00,44.9,38.5,30.33,ESE,108,0.0,1.0,78,0.00,,,0.00,Wunderground v.1.15,2013-01-11 16:24:00,
2013-01-11 11:29:00,45.1,38.6,30.32,ESE,103,0.0,1.0,78,0.00,,,0.00,Wunderground v.1.15,2013-01-11 16:29:00,
2013-01-11 11:34:00,45.3,38.8,30.32,SSE,153,0.0,2.0,78,0.00,,,0.00,Wunderground v.1.15,2013-01-11 16:34:00,
2013-01-11 11:40:00,45.5,39.0,30.31,SSE,151,0.0,0.0,78,0.00,,,0.00,Wunderground v.1.15,2013-01-11 16:40:00,
2013-01-11 11:45:00,45.7,38.9,30.30,SSE,158,0.0,1.0,77,0.00,,,0.00,Wunderground v.1.15,2013-01-11 16:45:00,
2013-01-11 11:51:00,45.9,39.4,30.31,ESE,115,0.0,0.0,78,0.00,,,0.00,Wunderground v.1.15,2013-01-11 16:51:00,
2013-01-11 11:56:00,45.9,39.1,30.31,ESE,105,0.0,3.0,77,0.00,,,0.00,Wunderground v.1.15,2013-01-11 16:56:00,
2013-01-11 12:02:00,44.7,38.6,30.30,WSW,257,0.0,2.0,79,0.00,,,0.00,Wunderground v.1.15,2013-01-11 17:02:00,
2013-01-11 12:07:00,43.6,37.8,30.29,West,263,0.0,2.0,80,0.00,,,0.00,Wunderground v.1.15,2013-01-11 17:07:00,
2013-01-11 12:13:00,43.3,38.5,30.28,West,263,0.0,1.0,83,0.00,,,0.00,Wunderground v.1.15,2013-01-11 17:13:00,
2013-01-11 12:18:00,43.4,38.9,30.28,West,263,0.0,1.0,84,0.00,,,0.00,Wunderground v.1.15,2013-01-11 17:18:00,
2013-01-11 12:23:00,44.1,39.9,30.28,WSW,249,0.0,1.0,85,0.00,,,0.00,Wunderground v.1.15,2013-01-11 17:23:00,
2013-01-11 12:29:00,44.8,40.0,30.27,East,100,0.0,1.0,83,0.00,,,0.00,Wunderground v.1.15,2013-01-11 17:29:00,
2013-01-11 12:35:00,45.0,40.1,30.27,WSW,249,0.0,1.0,83,0.00,,,0.00,Wunderground v.1.15,2013-01-11 17:35:00,
2013-01-11 12:40:00,45.0,39.8,30.27,WSW,249,0.0,1.0,82,0.00,,,0.00,Wunderground v.1.15,2013-01-11 17:40:00,
2013-01-11 12:45:00,45.2,40.3,30.27,SW,224,0.0,0.0,83,0.00,,,0.00,Wunderground v.1.15,2013-01-11 17:45:00,
2013-01-11 12:51:00,45.5,40.6,30.26,ESE,115,0.0,0.0,83,0.00,,,0.00,Wunderground v.1.15,2013-01-11 17:51:00,
2013-01-11 12:56:00,45.8,40.9,30.26,ESE,117,1.0,1.0,83,0.00,,,0.00,Wunderground v.1.15,2013-01-11 17:56:00,
2013-01-11 13:02:00,45.9,40.7,30.26,SSE,155,0.0,2.0,82,0.00,,,0.00,Wunderground v.1.15,2013-01-11 18:02:00,
2013-01-11 13:07:00,46.0,40.8,30.26,SW,214,0.0,2.0,82,0.00,,,0.00,Wunderground v.1.15,2013-01-11 18:07:00,
2013-01-11 13:13:00,45.3,40.1,30.25,SSW,207,0.0,1.0,82,0.00,,,0.00,Wunderground v.1.15,2013-01-11 18:13:00,
2013-01-11 13:18:00,45.3,41.1,30.25,South,172,1.0,1.0,85,0.00,,,0.00,Wunderground v.1.15,2013-01-11 18:18:00,
2013-01-11 13:24:00,45.8,41.9,30.24,ESE,106,0.0,0.0,86,0.00,,,0.00,Wunderground v.1.15,2013-01-11 18:24:00,
2013-01-11 13:29:00,46.2,41.9,30.24,SSE,163,1.0,1.0,85,0.00,,,0.00,Wunderground v.1.15,2013-01-11 18:29:00,
2013-01-11 13:35:00,46.5,42.2,30.23,ESE,120,0.0,1.0,85,0.00,,,0.00,Wunderground v.1.15,2013-01-11 18:35:00,
2013-01-11 13:40:00,46.7,42.4,30.23,SSE,160,1.0,1.0,85,0.00,,,0.00,Wunderground v.1.15,2013-01-11 18:40:00,
2013-01-11 13:46:00,46.8,42.2,30.23,NE,46,0.0,0.0,84,0.00,,,0.00,Wunderground v.1.15,2013-01-11 18:46:00,
2013-01-11 13:51:00,46.9,42.3,30.22,NE,54,1.0,2.0,84,0.00,,,0.00,Wunderground v.1.15,2013-01-11 18:51:00,
2013-01-11 13:57:00,46.9,42.3,30.21,East,100,1.0,1.0,84,0.00,,,0.00,Wunderground v.1.15,2013-01-11 18:57:00,
2013-01-11 14:02:00,46.9,42.6,30.21,ESE,122,0.0,1.0,85,0.00,,,0.00,Wunderground v.1.15,2013-01-11 19:02:00,
2013-01-11 14:08:00,46.9,42.9,30.21,ENE,77,0.0,2.0,86,0.00,,,0.00,Wunderground v.1.15,2013-01-11 19:08:00,
2013-01-11 14:13:00,46.9,42.9,30.22,NE,56,1.0,1.0,86,0.00,,,0.00,Wunderground v.1.15,2013-01-11 19:13:00,
2013-01-11 14:19:00,46.9,42.9,30.21,ENE,76,0.0,1.0,86,0.00,,,0.01,Wunderground v.1.15,2013-01-11 19:19:00,
2013-01-11 14:24:00,46.9,43.2,30.21,East,79,0.0,1.0,87,0.00,,,0.01,Wunderground v.1.15,2013-01-11 19:24:00,
2013-01-11 14:30:00,46.8,43.1,30.21,SSE,159,0.0,1.0,87,0.00,,,0.01,Wunderground v.1.15,2013-01-11 19:30:00,
2013-01-11 14:35:00,46.8,43.4,30.22,SSE,160,0.0,0.0,88,0.00,,,0.01,Wunderground v.1.15,2013-01-11 19:35:00,
2013-01-11 14:41:00,46.8,43.4,30.21,SSE,160,0.0,0.0,88,0.00,,,0.01,Wunderground v.1.15,2013-01-11 19:41:00,
2013-01-11 14:46:00,46.9,43.5,30.20,SSE,160,0.0,0.0,88,0.00,,,0.01,Wunderground v.1.15,2013-01-11 19:46:00,
2013-01-11 14:52:00,46.9,43.8,30.20,SSE,160,0.0,0.0,89,0.00,,,0.01,Wunderground v.1.15,2013-01-11 19:52:00,
2013-01-11 14:57:00,47.0,43.9,30.19,ESE,120,0.0,0.0,89,0.00,,,0.01,Wunderground v.1.15,2013-01-11 19:57:00,
2013-01-11 15:02:00,47.1,44.0,30.19,West,263,0.0,0.0,89,0.00,,,0.01,Wunderground v.1.15,2013-01-11 20:02:00,
2013-01-11 15:08:00,47.0,43.9,30.19,WSW,255,0.0,0.0,89,0.00,,,0.01,Wunderground v.1.15,2013-01-11 20:08:00,
2013-01-11 15:13:00,47.1,44.0,30.19,SSE,158,0.0,0.0,89,0.00,,,0.01,Wunderground v.1.15,2013-01-11 20:13:00,
2013-01-11 15:19:00,47.1,44.0,30.19,SSE,158,0.0,0.0,89,0.00,,,0.01,Wunderground v.1.15,2013-01-11 20:19:00,
2013-01-11 15:25:00,47.0,44.2,30.18,SSE,158,0.0,0.0,90,0.00,,,0.01,Wunderground v.1.15,2013-01-11 20:25:00,
2013-01-11 15:30:00,46.9,44.1,30.18,SSE,158,0.0,0.0,90,0.00,,,0.01,Wunderground v.1.15,2013-01-11 20:30:00,
2013-01-11 15:36:00,46.9,44.4,30.17,NNE,23,0.0,0.0,91,0.00,,,0.01,Wunderground v.1.15,2013-01-11 20:36:00,
2013-01-11 15:41:00,46.9,44.4,30.17,NNE,25,0.0,0.0,91,0.00,,,0.01,Wunderground v.1.15,2013-01-11 20:41:00,
2013-01-11 15:47:00,46.9,44.4,30.17,NNE,23,0.0,0.0,91,0.00,,,0.01,Wunderground v.1.15,2013-01-11 20:47:00,
2013-01-11 15:53:00,46.9,44.7,30.17,NNE,25,0.0,0.0,92,0.00,,,0.02,Wunderground v.1.15,2013-01-11 20:53:00,
2013-01-11 15:58:00,46.8,44.6,30.17,NE,36,0.0,0.0,92,0.00,,,0.02,Wunderground v.1.15,2013-01-11 20:58:00,
2013-01-11 16:04:00,46.8,44.6,30.16,NE,36,0.0,0.0,92,0.00,,,0.02,Wunderground v.1.15,2013-01-11 21:04:00,
2013-01-11 16:09:00,46.7,44.5,30.16,NE,36,0.0,0.0,92,0.00,,,0.02,Wunderground v.1.15,2013-01-11 21:09:00,
2013-01-11 16:15:00,46.7,44.5,30.16,ENE,59,0.0,0.0,92,0.00,,,0.02,Wunderground v.1.15,2013-01-11 21:15:00,
2013-01-11 16:20:00,46.7,44.8,30.16,ENE,60,0.0,0.0,93,0.00,,,0.02,Wunderground v.1.15,2013-01-11 21:20:00,
2013-01-11 16:26:00,46.6,44.7,30.15,ENE,60,0.0,0.0,93,0.00,,,0.02,Wunderground v.1.15,2013-01-11 21:26:00,
2013-01-11 16:31:00,46.6,44.7,30.14,ENE,60,0.0,0.0,93,0.00,,,0.02,Wunderground v.1.15,2013-01-11 21:31:00,
2013-01-11 16:37:00,46.5,44.6,30.14,ENE,59,0.0,0.0,93,0.00,,,0.03,Wunderground v.1.15,2013-01-11 21:37:00,
2013-01-11 16:42:00,46.5,44.6,30.14,SSW,211,0.0,2.0,93,0.00,,,0.03,Wunderground v.1.15,2013-01-11 21:42:00,
2013-01-11 16:48:00,46.4,44.8,30.14,SSW,211,0.0,0.0,94,0.00,,,0.03,Wunderground v.1.15,2013-01-11 21:48:00,
2013-01-11 16:54:00,46.4,44.8,30.14,SSW,211,0.0,0.0,94,0.00,,,0.03,Wunderground v.1.15,2013-01-11 21:54:00,
2013-01-11 16:59:00,46.4,44.8,30.14,SSW,211,0.0,0.0,94,0.00,,,0.03,Wunderground v.1.15,2013-01-11 21:59:00,
2013-01-11 17:05:00,46.3,44.7,30.14,NW,321,1.0,1.0,94,0.00,,,0.04,Wunderground v.1.15,2013-01-11 22:05:00,
2013-01-11 17:10:00,46.1,44.5,30.13,NW,320,0.0,1.0,94,0.00,,,0.04,Wunderground v.1.15,2013-01-11 22:10:00,
2013-01-11 17:16:00,45.8,44.2,30.13,NW,322,0.0,1.0,94,0.00,,,0.04,Wunderground v.1.15,2013-01-11 22:16:00,
2013-01-11 17:21:00,45.9,44.3,30.12,NW,322,0.0,0.0,94,0.00,,,0.04,Wunderground v.1.15,2013-01-11 22:21:00,
2013-01-11 17:27:00,46.1,44.7,30.12,NW,322,0.0,0.0,95,0.00,,,0.04,Wunderground v.1.15,2013-01-11 22:27:00,
2013-01-11 17:33:00,45.5,43.9,30.12,NW,320,1.0,1.0,94,0.00,,,0.04,Wunderground v.1.15,2013-01-11 22:33:00,
2013-01-11 17:38:00,44.6,42.7,30.12,WNW,301,2.0,2.0,93,0.00,,,0.04,Wunderground v.1.15,2013-01-11 22:38:00,
2013-01-11 17:43:00,44.8,43.5,30.13,WNW,296,3.0,3.0,95,0.00,,,0.04,Wunderground v.1.15,2013-01-11 22:43:00,
2013-01-11 17:48:00,44.4,42.8,30.12,WNW,296,0.0,3.0,94,0.00,,,0.04,Wunderground v.1.15,2013-01-11 22:48:00,
2013-01-11 17:53:00,44.1,42.8,30.12,WNW,300,0.0,2.0,95,0.00,,,0.04,Wunderground v.1.15,2013-01-11 22:53:00,
2013-01-11 17:58:00,44.2,42.9,30.12,NNW,335,1.0,2.0,95,0.00,,,0.04,Wunderground v.1.15,2013-01-11 22:58:00,
2013-01-11 18:03:00,44.2,42.9,30.12,NW,309,1.0,2.0,95,0.00,,,0.04,Wunderground v.1.15,2013-01-11 23:03:00,
2013-01-11 18:08:00,44.1,42.8,30.12,NW,307,0.0,2.0,95,0.00,,,0.04,Wunderground v.1.15,2013-01-11 23:08:00,
2013-01-11 18:13:00,43.9,42.6,30.12,NW,304,0.0,1.0,95,0.00,,,0.04,Wunderground v.1.15,2013-01-11 23:13:00,
2013-01-11 18:18:00,43.7,42.4,30.12,WNW,293,2.0,2.0,95,0.00,,,0.04,Wunderground v.1.15,2013-01-11 23:18:00,
2013-01-11 18:23:00,43.7,42.4,30.11,WNW,295,0.0,2.0,95,0.00,,,0.04,Wunderground v.1.15,2013-01-11 23:23:00,
2013-01-11 18:28:00,43.6,42.5,30.11,WNW,295,0.0,2.0,96,0.00,,,0.05,Wunderground v.1.15,2013-01-11 23:28:00,
2013-01-11 18:33:00,43.4,42.1,30.11,SW,236,0.0,0.0,95,0.00,,,0.05,Wunderground v.1.15,2013-01-11 23:33:00,
2013-01-11 18:38:00,43.2,41.9,30.11,SSW,204,0.0,0.0,95,0.00,,,0.05,Wunderground v.1.15,2013-01-11 23:38:00,
2013-01-11 18:43:00,43.2,42.1,30.11,SSW,205,0.0,0.0,96,0.00,,,0.05,Wunderground v.1.15,2013-01-11 23:43:00,
2013-01-11 18:48:00,42.9,41.6,30.11,West,277,2.0,3.0,95,0.00,,,0.06,Wunderground v.1.15,2013-01-11 23:48:00,
2013-01-11 18:53:00,42.6,41.5,30.11,West,278,4.0,4.0,96,0.00,,,0.06,Wunderground v.1.15,2013-01-11 23:53:00,
2013-01-11 18:58:00,42.6,41.5,30.12,WNW,287,5.0,6.0,96,0.00,,,0.06,Wunderground v.1.15,2013-01-11 23:58:00,
2013-01-11 19:03:00,42.6,41.5,30.11,NW,320,2.0,5.0,96,0.00,,,0.06,Wunderground v.1.15,2013-01-12 00:03:00,
2013-01-11 19:08:00,42.5,41.4,30.11,NW,304,3.0,5.0,96,0.00,,,0.06,Wunderground v.1.15,2013-01-12 00:08:00,
2013-01-11 19:13:00,42.5,41.4,30.12,NW,309,7.0,8.0,96,0.00,,,0.06,Wunderground v.1.15,2013-01-12 00:13:00,
2013-01-11 19:18:00,42.5,41.7,30.12,NW,304,8.0,9.0,97,0.00,,,0.06,Wunderground v.1.15,2013-01-12 00:18:00,
2013-01-11 19:23:00,42.4,41.6,30.12,NW,318,5.0,7.0,97,0.00,,,0.06,Wunderground v.1.15,2013-01-12 00:23:00,
2013-01-11 19:28:00,42.4,41.6,30.12,NW,326,5.0,7.0,97,0.00,,,0.06,Wunderground v.1.15,2013-01-12 00:28:00,
2013-01-11 19:33:00,42.4,41.6,30.12,NNW,328,5.0,6.0,97,0.00,,,0.06,Wunderground v.1.15,2013-01-12 00:33:00,
2013-01-11 19:38:00,42.3,41.5,30.12,NNW,332,5.0,7.0,97,0.00,,,0.06,Wunderground v.1.15,2013-01-12 00:38:00,
2013-01-11 19:43:00,42.4,41.6,30.12,NNW,340,4.0,6.0,97,0.00,,,0.06,Wunderground v.1.15,2013-01-12 00:43:00,
2013-01-11 19:48:00,42.5,41.7,30.12,NNW,328,4.0,6.0,97,0.00,,,0.06,Wunderground v.1.15,2013-01-12 00:48:00,
2013-01-11 19:53:00,42.5,41.7,30.12,NNW,328,4.0,4.0,97,0.00,,,0.06,Wunderground v.1.15,2013-01-12 00:53:00,
2013-01-11 19:58:00,42.5,41.7,30.12,NW,320,4.0,4.0,97,0.00,,,0.06,Wunderground v.1.15,2013-01-12 00:58:00,
2013-01-11 20:03:00,42.5,41.7,30.11,NW,326,3.0,4.0,97,0.00,,,0.06,Wunderground v.1.15,2013-01-12 01:03:00,
2013-01-11 20:08:00,42.5,41.7,30.11,NNW,329,2.0,4.0,97,0.00,,,0.06,Wunderground v.1.15,2013-01-12 01:08:00,
2013-01-11 20:13:00,42.5,41.7,30.11,NNW,329,3.0,3.0,97,0.00,,,0.06,Wunderground v.1.15,2013-01-12 01:13:00,
2013-01-11 20:18:00,42.5,41.7,30.11,NNW,347,2.0,3.0,97,0.00,,,0.06,Wunderground v.1.15,2013-01-12 01:18:00,
2013-01-11 20:23:00,42.5,41.7,30.11,North,356,2.0,3.0,97,0.00,,,0.06,Wunderground v.1.15,2013-01-12 01:23:00,
2013-01-11 20:28:00,42.7,41.9,30.11,North,354,2.0,3.0,97,0.00,,,0.06,Wunderground v.1.15,2013-01-12 01:28:00,
2013-01-11 20:33:00,42.8,42.3,30.11,NNE,18,1.0,2.0,98,0.00,,,0.06,Wunderground v.1.15,2013-01-12 01:33:00,
2013-01-11 20:38:00,42.9,42.4,30.11,NNE,12,2.0,2.0,98,0.00,,,0.06,Wunderground v.1.15,2013-01-12 01:38:00,
2013-01-11 20:43:00,42.9,42.4,30.11,NNE,13,2.0,4.0,98,0.00,,,0.06,Wunderground v.1.15,2013-01-12 01:43:00,
2013-01-11 20:48:00,42.9,42.4,30.11,NE,35,1.0,4.0,98,0.00,,,0.06,Wunderground v.1.15,2013-01-12 01:48:00,
2013-01-11 20:53:00,43.0,42.5,30.11,North,360,1.0,2.0,98,0.00,,,0.06,Wunderground v.1.15,2013-01-12 01:53:00,
2013-01-11 20:58:00,43.0,42.5,30.11,NNW,345,2.0,2.0,98,0.00,,,0.06,Wunderground v.1.15,2013-01-12 01:58:00,
2013-01-11 21:03:00,43.0,42.5,30.11,NNW,340,2.0,3.0,98,0.00,,,0.06,Wunderground v.1.15,2013-01-12 02:03:00,
2013-01-11 21:08:00,42.9,42.1,30.11,NNW,328,3.0,5.0,97,0.00,,,0.06,Wunderground v.1.15,2013-01-12 02:08:00,
2013-01-11 21:13:00,42.9,42.1,30.11,NNW,328,3.0,4.0,97,0.00,,,0.06,Wunderground v.1.15,2013-01-12 02:13:00,
2013-01-11 21:18:00,42.8,42.0,30.11,NNW,328,4.0,4.0,97,0.00,,,0.06,Wunderground v.1.15,2013-01-12 02:18:00,
2013-01-11 21:23:00,42.7,41.9,30.11,NW,323,3.0,4.0,97,0.00,,,0.06,Wunderground v.1.15,2013-01-12 02:23:00,
2013-01-11 21:28:00,42.7,42.2,30.11,North,354,3.0,4.0,98,0.00,,,0.06,Wunderground v.1.15,2013-01-12 02:28:00,
2013-01-11 21:33:00,42.7,42.2,30.10,North,349,1.0,3.0,98,0.00,,,0.06,Wunderground v.1.15,2013-01-12 02:33:00,
2013-01-11 21:38:00,42.8,42.3,30.10,North,349,0.0,3.0,98,0.00,,,0.06,Wunderground v.1.15,2013-01-12 02:38:00,
2013-01-11 21:43:00,42.8,42.3,30.10,North,351,1.0,1.0,98,0.00,,,0.06,Wunderground v.1.15,2013-01-12 02:43:00,
2013-01-11 21:48:00,42.9,42.4,30.09,NNE,13,0.0,1.0,98,0.00,,,0.06,Wunderground v.1.15,2013-01-12 02:48:00,
2013-01-11 21:53:00,42.9,42.4,30.10,North,355,2.0,2.0,98,0.00,,,0.06,Wunderground v.1.15,2013-01-12 02:53:00,
2013-01-11 21:58:00,42.9,42.4,30.10,North,355,1.0,2.0,98,0.00,,,0.06,Wunderground v.1.15,2013-01-12 02:58:00,
2013-01-11 22:03:00,42.9,42.4,30.11,North,355,1.0,1.0,98,0.00,,,0.06,Wunderground v.1.15,2013-01-12 03:03:00,
2013-01-11 22:07:00,42.9,42.4,30.10,NW,325,1.0,1.0,98,0.00,,,0.06,Wunderground v.1.15,2013-01-12 03:07:00,
2013-01-11 22:12:00,42.9,42.4,30.10,NW,325,0.0,0.0,98,0.00,,,0.06,Wunderground v.1.15,2013-01-12 03:12:00,
2013-01-11 22:17:00,42.9,42.4,30.10,NW,324,0.0,0.0,98,0.00,,,0.06,Wunderground v.1.15,2013-01-12 03:17:00,
2013-01-11 22:22:00,42.7,42.2,30.10,WNW,288,0.0,0.0,98,0.00,,,0.06,Wunderground v.1.15,2013-01-12 03:22:00,
2013-01-11 22:27:00,42.5,42.0,30.10,WNW,288,0.0,0.0,98,0.00,,,0.06,Wunderground v.1.15,2013-01-12 03:27:00,
2013-01-11 22:32:00,42.4,41.6,30.10,WNW,288,0.0,0.0,97,0.00,,,0.06,Wunderground v.1.15,2013-01-12 03:32:00,
2013-01-11 22:37:00,42.4,41.9,30.09,WNW,288,0.0,0.0,98,0.00,,,0.06,Wunderground v.1.15,2013-01-12 03:37:00,
2013-01-11 22:42:00,42.4,41.9,30.09,WNW,288,0.0,0.0,98,0.00,,,0.06,Wunderground v.1.15,2013-01-12 03:42:00,
2013-01-11 22:47:00,42.6,42.1,30.10,WNW,288,0.0,0.0,98,0.00,,,0.06,Wunderground v.1.15,2013-01-12 03:47:00,
2013-01-11 22:52:00,42.7,42.2,30.10,WNW,288,0.0,0.0,98,0.00,,,0.06,Wunderground v.1.15,2013-01-12 03:52:00,
2013-01-11 22:57:00,42.5,42.0,30.09,WSW,240,2.0,2.0,98,0.00,,,0.06,Wunderground v.1.15,2013-01-12 03:57:00,
2013-01-11 23:02:00,42.4,41.9,30.09,SW,231,1.0,1.0,98,0.00,,,0.06,Wunderground v.1.15,2013-01-12 04:02:00,
2013-01-11 23:07:00,42.2,41.7,30.09,SW,230,0.0,1.0,98,0.00,,,0.06,Wunderground v.1.15,2013-01-12 04:07:00,
2013-01-11 23:12:00,42.1,41.6,30.09,SSW,205,1.0,1.0,98,0.00,,,0.06,Wunderground v.1.15,2013-01-12 04:12:00,
2013-01-11 23:17:00,42.0,41.5,30.09,SSW,198,1.0,2.0,98,0.00,,,0.06,Wunderground v.1.15,2013-01-12 04:17:00,
2013-01-11 23:23:00,42.0,41.5,30.09,SSW,198,0.0,1.0,98,0.00,,,0.06,Wunderground v.1.15,2013-01-12 04:23:00,
2013-01-11 23:28:00,42.1,41.6,30.09,WSW,253,3.0,3.0,98,0.00,,,0.06,Wunderground v.1.15,2013-01-12 04:28:00,
2013-01-11 23:33:00,42.2,41.7,30.09,WSW,257,2.0,3.0,98,0.00,,,0.06,Wunderground v.1.15,2013-01-12 04:33:00,
2013-01-11 23:38:00,42.3,41.8,30.08,WSW,248,2.0,3.0,98,0.00,,,0.06,Wunderground v.1.15,2013-01-12 04:38:00,
2013-01-11 23:43:00,42.4,41.9,30.08,SW,230,2.0,2.0,98,0.00,,,0.06,Wunderground v.1.15,2013-01-12 04:43:00,
2013-01-11 23:48:00,42.6,42.1,30.08,WSW,245,2.0,3.0,98,0.00,,,0.06,Wunderground v.1.15,2013-01-12 04:48:00,
2013-01-11 23:53:00,42.5,42.0,30.08,WSW,248,0.0,2.0,98,0.00,,,0.06,Wunderground v.1.15,2013-01-12 04:53:00,
2013-01-11 23:58:00,42.5,42.0,30.08,SW,225,0.0,2.0,98,0.00,,,0.06,Wunderground v.1.15,2013-01-12 04:58:00,